LRBV Weather Reports


time (UTC)temp
F
wind
direction
speed
knots
gust
knots
rain 1hr
in
rain 24hr
in
rain mn
in
humidity
%
barometer
mb
20260503231851 45 220 7.0 0.0 0.00 0.00 0.00 66 1018.0
20260503230402 45 220 7.0 0.0 0.00 0.00 0.00 66 1018.0
20260503224847 45 220 7.0 0.0 0.00 0.00 0.00 66 1018.0
20260503223359 45 220 7.0 0.0 0.00 0.00 0.00 66 1018.0
20260503221907 45 220 7.8 0.0 0.00 0.00 0.00 61 1019.0
20260503220432 45 220 7.8 0.0 0.00 0.00 0.00 61 1019.0
20260503214854 43 220 6.1 0.0 0.00 0.00 0.00 66 1019.0
20260503213350 43 220 6.1 0.0 0.00 0.00 0.00 66 1019.0
20260503211851 43 240 7.0 0.0 0.00 0.00 0.00 71 1019.0
20260503210350 43 240 7.0 0.0 0.00 0.00 0.00 71 1019.0
20260503204857 45 250 2.6 0.0 0.00 0.00 0.00 66 1019.0
20260503203512 45 250 2.6 0.0 0.00 0.00 0.00 66 1019.0
20260503201851 45 0 0.0 0.0 0.00 0.00 0.00 61 1019.0
20260503200400 45 0 0.0 0.0 0.00 0.00 0.00 61 1019.0
20260503194916 46 320 5.2 0.0 0.00 0.00 0.00 57 1019.0
20260503193514 46 320 5.2 0.0 0.00 0.00 0.00 57 1019.0
20260503191848 48 290 7.0 0.0 0.00 0.00 0.00 50 1019.0
20260503190351 48 290 7.0 0.0 0.00 0.00 0.00 50 1019.0
20260503185012 50 270 4.3 0.0 0.00 0.00 0.00 47 1019.0
20260503183350 50 270 4.3 0.0 0.00 0.00 0.00 47 1019.0
20260503181850 50 260 5.2 0.0 0.00 0.00 0.00 50 1018.0
20260503180350 50 260 5.2 0.0 0.00 0.00 0.00 50 1018.0
20260503174910 52 260 4.3 0.0 0.00 0.00 0.00 44 1018.0
20260503173415 52 260 4.3 0.0 0.00 0.00 0.00 44 1018.0
20260503171850 54 280 7.0 0.0 0.00 0.00 0.00 41 1018.0
20260503170351 54 280 7.0 0.0 0.00 0.00 0.00 41 1018.0
20260503150350 57 1.7 0.0 0.00 0.00 0.00 29 1019.0
20260503130351 55 190 7.0 0.0 0.00 0.00 0.00 31 1020.0
20260503110411 52 330 6.1 0.0 0.00 0.00 0.00 35 1022.0
20260503090411 48 2.6 0.0 0.00 0.00 0.00 40 1023.0
20260503080401 46 2.6 0.0 0.00 0.00 0.00 57 1023.0
20260503071849 41 1.7 0.0 0.00 0.00 0.00 87 1023.0
20260503070351 41 1.7 0.0 0.00 0.00 0.00 87 1023.0
20260503054850 34 0.9 0.0 0.00 0.00 0.00 100 1023.0
20260503053350 34 0.9 0.0 0.00 0.00 0.00 100 1023.0
20260503050350 32 0 0.0 0.0 0.00 0.00 0.00 100 1023.0
20260503043351 30 1.7 0.0 0.00 0.00 0.00 100 1023.0
20260503041850 30 0 0.0 0.0 0.00 0.00 0.00 93 1022.0
20260503040413 30 0 0.0 0.0 0.00 0.00 0.00 93 1022.0
20260503033350 30 1.7 0.0 0.00 0.00 0.00 93 1022.0
20260503030350 28 1.7 0.0 0.00 0.00 0.00 100 1022.0
20260503023351 28 240 1.7 0.0 0.00 0.00 0.00 100 1022.0
20260503020350 28 1.7 0.0 0.00 0.00 0.00 100 1022.0
20260503013350 30 250 2.6 0.0 0.00 0.00 0.00 100 1022.0
20260503010351 30 250 2.6 0.0 0.00 0.00 0.00 100 1022.0
20260503003350 30 1.7 0.0 0.00 0.00 0.00 100 1022.0
20260503000350 32 220 2.6 0.0 0.00 0.00 0.00 93 1022.0
20260502234850 32 270 2.6 0.0 0.00 0.00 0.00 93 1022.0
20260502233350 32 270 2.6 0.0 0.00 0.00 0.00 93 1022.0